GEFSSE_prec_meanprecacc_060.txt.gz
Total_Precipitation_Accumulation
0.00 0.01 0.02 0.01 0.01 0.01 0.02 0.05 0.07 0.08 0.08 0.09 0.10 0.09 0.08 0.04 0.02 0.02 0.00 0.00 0.01 0.01 0.02 0.02 0.03 0.04 0.04 0.04 0.04 0.03 0.03 0.03 0.04 0.06 0.09 0.12 0.16 0.26 0.39 0.56 0.77 0.76 0.56
0.00 0.01 0.02 0.02 0.01 0.01 0.02 0.04 0.07 0.09 0.10 0.11 0.11 0.11 0.10 0.06 0.03 0.01 0.00 0.00 0.01 0.01 0.02 0.02 0.03 0.03 0.03 0.02 0.01 0.01 0.01 0.02 0.04 0.08 0.14 0.17 0.22 0.33 0.43 0.54 0.72 0.66 0.44
0.00 0.00 0.01 0.01 0.01 0.01 0.02 0.04 0.06 0.08 0.09 0.10 0.10 0.10 0.07 0.04 0.03 0.01 0.01 0.00 0.01 0.01 0.02 0.02 0.02 0.02 0.01 0.01 0.01 0.00 0.01 0.02 0.04 0.14 0.28 0.36 0.19 0.27 0.40 0.56 0.62 0.40 0.32
0.00 0.00 0.00 0.01 0.01 0.01 0.01 0.02 0.04 0.06 0.07 0.08 0.08 0.07 0.05 0.03 0.02 0.02 0.01 0.01 0.02 0.03 0.03 0.03 0.03 0.02 0.01 0.01 0.00 0.01 0.01 0.03 0.07 0.20 0.44 0.50 0.31 0.19 0.30 0.33 0.37 0.31 0.28
0.00 0.00 0.01 0.01 0.01 0.00 0.01 0.02 0.03 0.04 0.04 0.05 0.05 0.05 0.04 0.03 0.02 0.02 0.02 0.02 0.03 0.04 0.05 0.04 0.04 0.03 0.02 0.01 0.00 0.00 0.02 0.03 0.10 0.20 0.31 0.43 0.51 0.26 0.21 0.22 0.30 0.30 0.22
0.00 0.00 0.01 0.01 0.01 0.01 0.01 0.02 0.02 0.03 0.04 0.03 0.03 0.03 0.02 0.02 0.02 0.03 0.03 0.03 0.04 0.06 0.07 0.06 0.06 0.05 0.03 0.01 0.01 0.01 0.01 0.04 0.12 0.17 0.20 0.24 0.33 0.26 0.19 0.21 0.25 0.26 0.18
0.00 0.00 0.01 0.02 0.02 0.02 0.02 0.03 0.04 0.04 0.04 0.04 0.03 0.03 0.02 0.02 0.03 0.04 0.04 0.05 0.06 0.08 0.09 0.09 0.08 0.08 0.07 0.05 0.03 0.03 0.02 0.05 0.12 0.18 0.17 0.22 0.24 0.20 0.22 0.26 0.28 0.22 0.15
0.00 0.01 0.02 0.03 0.03 0.03 0.03 0.04 0.05 0.05 0.05 0.05 0.05 0.04 0.03 0.03 0.04 0.05 0.06 0.08 0.08 0.09 0.08 0.08 0.08 0.08 0.07 0.07 0.07 0.06 0.05 0.05 0.09 0.15 0.20 0.27 0.32 0.24 0.33 0.32 0.27 0.22 0.18
0.02 0.01 0.02 0.03 0.04 0.04 0.05 0.05 0.06 0.06 0.07 0.07 0.06 0.05 0.04 0.04 0.04 0.05 0.07 0.08 0.10 0.10 0.09 0.09 0.08 0.09 0.10 0.09 0.09 0.07 0.07 0.07 0.10 0.15 0.20 0.27 0.31 0.33 0.53 0.49 0.37 0.31 0.27
0.06 0.04 0.04 0.08 0.13 0.13 0.11 0.10 0.09 0.09 0.09 0.07 0.06 0.05 0.05 0.05 0.07 0.10 0.10 0.11 0.13 0.14 0.14 0.15 0.15 0.17 0.18 0.16 0.15 0.15 0.15 0.10 0.07 0.10 0.16 0.24 0.28 0.43 0.65 0.67 0.58 0.52 0.45
0.07 0.08 0.10 0.15 0.18 0.21 0.22 0.21 0.21 0.21 0.21 0.17 0.17 0.15 0.13 0.14 0.20 0.32 0.32 0.34 0.32 0.32 0.35 0.34 0.35 0.38 0.38 0.26 0.29 0.32 0.23 0.08 0.06 0.09 0.13 0.23 0.32 0.54 0.70 0.76 0.68 0.62 0.60
0.16 0.22 0.24 0.25 0.25 0.26 0.29 0.42 0.49 0.51 0.57 0.51 0.52 0.52 0.49 0.47 0.42 0.40 0.55 0.62 0.69 0.80 0.79 0.78 0.93 0.82 0.61 0.41 0.56 0.63 0.29 0.16 0.12 0.12 0.15 0.26 0.36 0.58 0.75 0.76 0.72 0.65 0.63
0.30 0.29 0.29 0.31 0.37 0.45 0.54 0.60 0.67 0.75 0.88 0.97 1.01 1.02 1.06 0.94 0.76 0.70 0.92 1.04 1.00 1.03 0.92 1.15 1.41 1.02 0.93 0.92 0.91 0.82 0.57 0.43 0.29 0.28 0.35 0.44 0.53 0.73 0.86 0.78 0.77 0.73 0.60
0.49 0.48 0.53 0.52 0.54 0.59 0.66 0.67 0.72 0.74 0.84 0.90 1.01 1.15 1.30 1.30 1.16 1.16 1.29 1.16 1.09 1.10 1.23 1.33 1.45 1.29 1.20 1.20 1.14 1.08 1.02 0.75 0.54 0.51 0.69 0.82 0.84 0.91 0.96 0.91 0.87 0.82 0.72
0.77 0.88 0.92 0.89 0.84 0.78 0.71 0.68 0.70 0.68 0.66 0.68 0.80 1.06 1.25 1.33 1.37 1.46 1.30 1.14 0.99 1.22 1.46 1.48 1.35 1.42 1.41 1.50 1.48 1.44 1.34 0.96 0.71 0.67 0.80 1.13 1.08 0.99 1.01 1.05 1.04 0.98 0.96
1.07 1.22 1.24 1.30 1.26 1.06 0.86 0.74 0.71 0.66 0.69 0.75 0.83 0.95 1.14 1.24 1.31 1.35 1.28 1.17 1.12 1.27 1.44 1.44 1.38 1.53 1.57 1.53 1.26 1.15 1.10 1.07 0.94 0.79 0.83 1.05 1.08 0.89 0.89 1.01 1.07 1.06 1.12
1.47 1.69 1.82 1.83 1.73 1.59 1.38 1.10 0.91 0.82 0.81 0.86 0.91 0.85 0.90 1.01 1.04 1.14 1.14 1.12 1.17 1.22 1.25 1.22 1.21 1.36 1.30 1.18 1.01 0.95 0.95 0.93 0.91 0.87 0.80 0.83 0.94 0.91 0.81 0.84 0.91 0.93 1.00
1.98 2.40 2.59 2.52 2.30 1.91 1.58 1.36 1.21 1.13 1.08 0.96 0.88 0.77 0.66 0.72 0.79 0.86 0.84 0.88 0.94 0.99 1.00 0.95 0.97 1.05 1.10 1.16 1.13 0.98 1.01 1.00 0.92 0.98 1.01 0.88 0.84 0.78 0.95 1.01 0.97 0.89 0.95
3.06 3.53 3.42 2.96 2.60 2.06 1.59 1.36 1.32 1.36 1.28 1.11 0.99 0.86 0.71 0.66 0.70 0.76 0.74 0.73 0.71 0.73 0.76 0.72 0.78 0.87 0.92 0.97 0.94 0.93 0.90 0.88 0.82 0.82 0.95 0.83 0.81 0.82 0.91 0.97 1.03 0.95 1.00
3.52 4.16 4.05 3.37 2.66 2.13 1.78 1.55 1.40 1.35 1.22 1.06 0.97 0.85 0.70 0.62 0.61 0.59 0.57 0.54 0.50 0.51 0.55 0.58 0.67 0.75 0.77 0.83 0.77 0.78 0.76 0.68 0.66 0.67 0.64 0.65 0.69 0.67 0.76 0.88 0.93 0.78 0.91
2.77 3.20 3.17 2.54 2.03 1.72 1.44 1.08 0.91 0.89 0.80 0.71 0.69 0.64 0.61 0.56 0.52 0.47 0.41 0.40 0.37 0.36 0.38 0.40 0.47 0.55 0.59 0.66 0.74 0.71 0.64 0.59 0.58 0.57 0.54 0.51 0.52 0.63 0.73 0.85 0.89 0.83 0.71
1.74 1.79 1.40 1.11 0.93 0.79 0.69 0.52 0.42 0.38 0.36 0.34 0.35 0.35 0.33 0.37 0.40 0.39 0.37 0.36 0.35 0.34 0.33 0.36 0.41 0.44 0.47 0.54 0.60 0.58 0.52 0.50 0.52 0.45 0.51 0.51 0.50 0.65 0.74 0.73 0.78 0.82 0.67
1.07 0.92 0.62 0.48 0.48 0.43 0.34 0.26 0.23 0.21 0.21 0.21 0.22 0.22 0.22 0.23 0.26 0.29 0.33 0.36 0.35 0.31 0.30 0.32 0.34 0.35 0.35 0.38 0.47 0.53 0.47 0.42 0.38 0.39 0.43 0.47 0.53 0.60 0.62 0.71 0.67 0.63 0.66
0.48 0.48 0.52 0.53 0.44 0.33 0.28 0.20 0.15 0.13 0.13 0.13 0.15 0.15 0.17 0.16 0.16 0.18 0.24 0.29 0.30 0.31 0.31 0.25 0.26 0.31 0.31 0.28 0.31 0.39 0.37 0.38 0.42 0.40 0.39 0.45 0.53 0.51 0.51 0.54 0.56 0.57 0.59
0.29 0.47 0.69 0.70 0.49 0.34 0.29 0.24 0.22 0.20 0.18 0.17 0.17 0.18 0.20 0.20 0.20 0.17 0.17 0.22 0.27 0.33 0.38 0.34 0.32 0.30 0.29 0.26 0.26 0.33 0.34 0.30 0.35 0.41 0.39 0.40 0.44 0.38 0.36 0.37 0.38 0.44 0.47
0.27 0.34 0.43 0.52 0.59 0.53 0.47 0.37 0.34 0.33 0.31 0.28 0.26 0.25 0.25 0.26 0.28 0.27 0.27 0.30 0.33 0.33 0.34 0.36 0.39 0.38 0.36 0.33 0.26 0.29 0.42 0.39 0.29 0.34 0.35 0.38 0.39 0.28 0.30 0.34 0.36 0.39 0.46

GEFSSE_prec_meanprecacc_066.txt.gz
Total_Precipitation_Accumulation
0.02 0.04 0.09 0.07 0.03 0.01 0.02 0.05 0.08 0.09 0.09 0.10 0.11 0.10 0.08 0.05 0.03 0.02 0.01 0.01 0.01 0.01 0.02 0.02 0.03 0.04 0.04 0.04 0.04 0.04 0.04 0.03 0.05 0.08 0.11 0.15 0.21 0.36 0.55 0.74 0.90 0.85 0.63
0.00 0.02 0.08 0.09 0.06 0.03 0.03 0.05 0.08 0.10 0.10 0.12 0.12 0.12 0.10 0.06 0.03 0.01 0.01 0.01 0.01 0.01 0.02 0.02 0.03 0.03 0.03 0.02 0.02 0.01 0.02 0.03 0.06 0.11 0.18 0.24 0.32 0.46 0.57 0.70 0.83 0.71 0.50
0.00 0.01 0.04 0.08 0.07 0.04 0.04 0.06 0.07 0.10 0.11 0.11 0.11 0.11 0.08 0.04 0.03 0.01 0.01 0.01 0.01 0.02 0.02 0.02 0.02 0.02 0.02 0.01 0.01 0.01 0.03 0.05 0.07 0.17 0.32 0.40 0.30 0.43 0.54 0.68 0.71 0.45 0.36
0.01 0.00 0.01 0.05 0.06 0.04 0.04 0.05 0.06 0.07 0.08 0.09 0.09 0.08 0.05 0.03 0.02 0.02 0.01 0.01 0.02 0.03 0.03 0.03 0.03 0.02 0.01 0.01 0.01 0.02 0.04 0.07 0.11 0.22 0.45 0.52 0.37 0.33 0.43 0.44 0.44 0.35 0.31
0.01 0.01 0.02 0.04 0.04 0.03 0.03 0.03 0.04 0.05 0.05 0.06 0.06 0.06 0.04 0.03 0.02 0.02 0.02 0.02 0.03 0.04 0.05 0.04 0.04 0.03 0.02 0.01 0.01 0.02 0.05 0.08 0.14 0.22 0.32 0.44 0.55 0.38 0.31 0.30 0.35 0.34 0.25
0.01 0.01 0.03 0.04 0.04 0.03 0.03 0.04 0.04 0.04 0.04 0.04 0.04 0.04 0.03 0.02 0.03 0.03 0.03 0.03 0.05 0.06 0.07 0.06 0.06 0.05 0.03 0.02 0.01 0.02 0.04 0.09 0.15 0.18 0.21 0.24 0.36 0.37 0.29 0.28 0.30 0.30 0.20
0.01 0.02 0.03 0.05 0.05 0.04 0.04 0.04 0.05 0.05 0.05 0.04 0.04 0.03 0.03 0.03 0.04 0.05 0.05 0.05 0.06 0.08 0.09 0.09 0.08 0.08 0.07 0.05 0.03 0.03 0.05 0.08 0.13 0.18 0.18 0.23 0.28 0.29 0.31 0.32 0.34 0.26 0.17
0.02 0.02 0.04 0.05 0.05 0.05 0.05 0.05 0.06 0.06 0.05 0.06 0.05 0.04 0.04 0.05 0.05 0.06 0.08 0.09 0.09 0.10 0.09 0.09 0.09 0.09 0.08 0.08 0.07 0.07 0.07 0.07 0.10 0.16 0.20 0.27 0.35 0.31 0.40 0.37 0.32 0.25 0.19
0.03 0.03 0.04 0.05 0.06 0.07 0.07 0.07 0.07 0.07 0.08 0.08 0.07 0.06 0.05 0.05 0.05 0.07 0.09 0.11 0.12 0.12 0.11 0.11 0.10 0.10 0.11 0.11 0.10 0.08 0.09 0.08 0.11 0.16 0.20 0.27 0.34 0.37 0.58 0.54 0.41 0.34 0.28
0.07 0.06 0.05 0.08 0.14 0.14 0.13 0.12 0.11 0.11 0.10 0.08 0.07 0.06 0.06 0.06 0.09 0.13 0.13 0.15 0.18 0.19 0.18 0.18 0.19 0.21 0.22 0.20 0.18 0.17 0.17 0.11 0.08 0.12 0.17 0.25 0.31 0.48 0.70 0.70 0.61 0.56 0.47
0.08 0.09 0.12 0.17 0.19 0.22 0.23 0.23 0.23 0.23 0.23 0.19 0.19 0.19 0.16 0.16 0.22 0.35 0.36 0.41 0.39 0.39 0.41 0.40 0.41 0.44 0.43 0.31 0.33 0.36 0.26 0.09 0.07 0.10 0.14 0.25 0.36 0.60 0.75 0.80 0.71 0.64 0.62
0.18 0.24 0.26 0.26 0.26 0.27 0.29 0.43 0.50 0.52 0.59 0.52 0.53 0.53 0.50 0.48 0.43 0.42 0.59 0.71 0.78 0.88 0.87 0.86 0.99 0.88 0.64 0.43 0.58 0.66 0.31 0.17 0.12 0.13 0.16 0.27 0.41 0.64 0.81 0.82 0.77 0.68 0.66
0.37 0.33 0.32 0.34 0.40 0.48 0.57 0.62 0.68 0.76 0.89 0.98 1.03 1.03 1.07 0.95 0.78 0.72 0.93 1.08 1.07 1.10 0.97 1.21 1.46 1.06 0.97 0.94 0.92 0.84 0.60 0.45 0.30 0.29 0.37 0.46 0.57 0.80 0.95 0.86 0.83 0.78 0.64
0.64 0.59 0.60 0.59 0.62 0.66 0.71 0.70 0.74 0.76 0.87 0.93 1.05 1.17 1.31 1.31 1.18 1.18 1.30 1.18 1.12 1.12 1.27 1.36 1.47 1.32 1.24 1.23 1.17 1.11 1.06 0.79 0.57 0.55 0.71 0.86 0.89 0.98 1.07 1.02 0.96 0.88 0.79
0.99 1.06 1.05 0.99 0.93 0.86 0.76 0.72 0.72 0.71 0.69 0.69 0.81 1.06 1.25 1.34 1.38 1.46 1.30 1.15 1.00 1.23 1.48 1.50 1.37 1.44 1.44 1.53 1.51 1.47 1.39 1.02 0.77 0.73 0.83 1.18 1.17 1.08 1.13 1.20 1.16 1.08 1.04
1.36 1.45 1.41 1.42 1.36 1.14 0.92 0.79 0.74 0.68 0.70 0.75 0.83 0.96 1.14 1.24 1.31 1.35 1.28 1.17 1.12 1.28 1.44 1.45 1.40 1.55 1.59 1.55 1.28 1.18 1.15 1.12 0.98 0.82 0.86 1.08 1.17 1.02 1.02 1.15 1.22 1.22 1.26
1.81 1.99 2.06 2.00 1.85 1.67 1.43 1.14 0.93 0.83 0.82 0.87 0.91 0.86 0.90 1.01 1.04 1.14 1.14 1.12 1.17 1.22 1.25 1.22 1.22 1.37 1.32 1.19 1.03 0.98 0.99 0.97 0.94 0.91 0.83 0.86 0.98 1.03 0.94 0.99 1.06 1.09 1.17
2.32 2.66 2.81 2.67 2.39 1.98 1.62 1.38 1.22 1.14 1.09 0.97 0.89 0.77 0.66 0.72 0.79 0.86 0.84 0.88 0.94 0.99 1.00 0.95 0.97 1.05 1.10 1.16 1.14 0.99 1.03 1.02 0.95 1.01 1.03 0.90 0.87 0.84 1.05 1.16 1.12 1.05 1.13
3.39 3.76 3.59 3.09 2.69 2.12 1.61 1.36 1.33 1.37 1.28 1.11 1.00 0.86 0.71 0.66 0.70 0.76 0.74 0.73 0.71 0.73 0.76 0.72 0.78 0.87 0.92 0.97 0.94 0.94 0.91 0.89 0.82 0.83 0.96 0.84 0.82 0.85 0.97 1.07 1.19 1.12 1.19
3.85 4.40 4.22 3.47 2.72 2.15 1.79 1.56 1.40 1.35 1.22 1.06 0.97 0.85 0.70 0.62 0.61 0.59 0.57 0.54 0.50 0.51 0.55 0.58 0.67 0.75 0.77 0.83 0.77 0.78 0.76 0.68 0.66 0.67 0.65 0.66 0.70 0.68 0.79 0.94 1.02 0.89 1.06
3.08 3.44 3.34 2.63 2.06 1.73 1.44 1.08 0.91 0.89 0.80 0.71 0.69 0.64 0.61 0.56 0.52 0.47 0.41 0.40 0.37 0.36 0.38 0.40 0.47 0.55 0.59 0.66 0.74 0.71 0.64 0.59 0.58 0.57 0.54 0.51 0.52 0.64 0.75 0.87 0.92 0.87 0.77
1.96 1.96 1.49 1.16 0.95 0.80 0.69 0.52 0.42 0.38 0.36 0.34 0.35 0.35 0.33 0.37 0.40 0.39 0.37 0.36 0.35 0.34 0.33 0.36 0.41 0.44 0.47 0.54 0.60 0.58 0.52 0.50 0.52 0.45 0.51 0.51 0.50 0.66 0.75 0.75 0.80 0.84 0.70
1.23 1.01 0.67 0.50 0.50 0.43 0.35 0.26 0.23 0.21 0.21 0.21 0.22 0.22 0.22 0.23 0.26 0.29 0.33 0.36 0.35 0.31 0.30 0.32 0.34 0.35 0.35 0.38 0.47 0.53 0.47 0.42 0.38 0.39 0.43 0.47 0.53 0.61 0.63 0.72 0.68 0.64 0.67
0.55 0.52 0.54 0.54 0.44 0.33 0.28 0.20 0.15 0.13 0.13 0.13 0.15 0.15 0.17 0.16 0.16 0.18 0.24 0.29 0.30 0.31 0.31 0.25 0.26 0.31 0.31 0.28 0.31 0.39 0.37 0.38 0.42 0.40 0.39 0.45 0.53 0.51 0.51 0.54 0.56 0.57 0.60
0.31 0.48 0.70 0.71 0.50 0.34 0.29 0.24 0.22 0.20 0.18 0.17 0.17 0.18 0.20 0.20 0.20 0.17 0.17 0.22 0.27 0.33 0.38 0.34 0.32 0.30 0.29 0.26 0.26 0.33 0.34 0.30 0.35 0.41 0.39 0.40 0.44 0.38 0.36 0.37 0.38 0.44 0.48
0.27 0.35 0.44 0.53 0.60 0.53 0.47 0.37 0.34 0.33 0.31 0.28 0.26 0.25 0.25 0.26 0.28 0.27 0.27 0.30 0.33 0.33 0.34 0.36 0.39 0.38 0.36 0.33 0.26 0.29 0.42 0.39 0.29 0.34 0.35 0.38 0.39 0.28 0.30 0.34 0.36 0.39 0.46

GEFSSE_prec_meanprecacc_072.txt.gz
Total_Precipitation_Accumulation
0.02 0.05 0.11 0.12 0.07 0.03 0.03 0.06 0.09 0.10 0.09 0.10 0.11 0.10 0.08 0.05 0.03 0.02 0.01 0.01 0.01 0.02 0.02 0.02 0.03 0.04 0.04 0.04 0.04 0.04 0.04 0.04 0.07 0.10 0.14 0.21 0.34 0.51 0.70 0.89 1.04 0.98 0.72
0.00 0.03 0.10 0.14 0.11 0.07 0.05 0.06 0.09 0.11 0.11 0.12 0.12 0.12 0.10 0.06 0.03 0.02 0.01 0.01 0.01 0.02 0.02 0.03 0.03 0.03 0.03 0.02 0.02 0.02 0.02 0.04 0.07 0.13 0.23 0.32 0.44 0.59 0.71 0.85 1.02 0.82 0.57
0.00 0.01 0.05 0.11 0.11 0.09 0.07 0.08 0.09 0.11 0.11 0.11 0.11 0.11 0.08 0.05 0.03 0.02 0.01 0.01 0.01 0.02 0.02 0.03 0.03 0.02 0.02 0.02 0.01 0.02 0.04 0.07 0.10 0.20 0.37 0.50 0.37 0.53 0.65 0.80 0.86 0.53 0.42
0.01 0.01 0.01 0.08 0.10 0.09 0.08 0.08 0.08 0.09 0.08 0.09 0.09 0.08 0.06 0.03 0.03 0.02 0.02 0.02 0.02 0.03 0.03 0.03 0.03 0.03 0.01 0.01 0.02 0.03 0.05 0.09 0.13 0.24 0.48 0.57 0.42 0.39 0.51 0.52 0.55 0.43 0.38
0.01 0.01 0.03 0.07 0.08 0.08 0.08 0.07 0.07 0.07 0.07 0.06 0.06 0.06 0.04 0.03 0.03 0.03 0.02 0.03 0.03 0.05 0.05 0.05 0.05 0.03 0.02 0.01 0.02 0.03 0.07 0.10 0.16 0.24 0.34 0.49 0.62 0.45 0.40 0.37 0.44 0.41 0.32
0.02 0.02 0.04 0.07 0.08 0.09 0.08 0.08 0.07 0.06 0.06 0.05 0.05 0.05 0.03 0.03 0.03 0.04 0.04 0.04 0.05 0.07 0.07 0.06 0.06 0.05 0.03 0.02 0.02 0.04 0.08 0.12 0.16 0.19 0.23 0.29 0.42 0.43 0.38 0.37 0.36 0.34 0.24
0.02 0.02 0.04 0.09 0.10 0.10 0.09 0.09 0.08 0.07 0.06 0.06 0.05 0.04 0.03 0.04 0.04 0.05 0.07 0.07 0.07 0.09 0.10 0.09 0.09 0.08 0.08 0.05 0.05 0.06 0.10 0.13 0.14 0.19 0.20 0.27 0.35 0.37 0.42 0.43 0.39 0.29 0.20
0.02 0.03 0.05 0.09 0.11 0.12 0.11 0.11 0.10 0.09 0.08 0.07 0.07 0.05 0.05 0.05 0.06 0.07 0.09 0.11 0.11 0.11 0.10 0.10 0.09 0.09 0.09 0.08 0.08 0.09 0.12 0.11 0.11 0.16 0.21 0.29 0.39 0.37 0.50 0.47 0.38 0.29 0.22
0.04 0.04 0.06 0.07 0.10 0.12 0.14 0.13 0.11 0.10 0.10 0.09 0.08 0.06 0.05 0.05 0.06 0.07 0.10 0.13 0.14 0.14 0.12 0.12 0.11 0.12 0.13 0.12 0.11 0.11 0.13 0.11 0.12 0.17 0.21 0.29 0.36 0.43 0.65 0.60 0.47 0.39 0.32
0.09 0.08 0.07 0.11 0.17 0.17 0.17 0.16 0.15 0.13 0.12 0.10 0.08 0.06 0.06 0.07 0.10 0.14 0.14 0.16 0.20 0.22 0.22 0.21 0.22 0.24 0.24 0.21 0.19 0.18 0.20 0.14 0.09 0.14 0.18 0.25 0.33 0.52 0.78 0.77 0.66 0.61 0.51
0.11 0.12 0.15 0.20 0.23 0.26 0.26 0.25 0.25 0.25 0.25 0.20 0.21 0.20 0.18 0.19 0.25 0.37 0.38 0.43 0.43 0.43 0.46 0.44 0.46 0.48 0.46 0.33 0.34 0.37 0.27 0.10 0.08 0.11 0.16 0.25 0.37 0.63 0.81 0.88 0.78 0.70 0.67
0.20 0.26 0.29 0.29 0.29 0.29 0.31 0.46 0.54 0.55 0.61 0.55 0.57 0.57 0.55 0.53 0.48 0.45 0.62 0.74 0.83 0.94 0.93 0.92 1.06 0.92 0.67 0.46 0.60 0.67 0.32 0.18 0.14 0.15 0.18 0.29 0.43 0.68 0.87 0.89 0.84 0.74 0.71
0.39 0.35 0.34 0.37 0.43 0.50 0.60 0.66 0.72 0.80 0.93 1.03 1.07 1.07 1.12 0.99 0.82 0.76 0.99 1.15 1.15 1.17 1.05 1.29 1.53 1.12 1.01 0.98 0.96 0.86 0.61 0.46 0.31 0.30 0.39 0.50 0.62 0.86 1.03 0.93 0.89 0.84 0.71
0.67 0.62 0.62 0.62 0.66 0.70 0.77 0.76 0.80 0.81 0.91 0.98 1.08 1.19 1.34 1.35 1.22 1.22 1.35 1.24 1.19 1.21 1.37 1.47 1.58 1.41 1.30 1.28 1.22 1.16 1.09 0.82 0.59 0.57 0.75 0.90 0.97 1.07 1.18 1.12 1.04 0.96 0.87
1.04 1.10 1.10 1.05 0.99 0.93 0.85 0.79 0.78 0.77 0.73 0.72 0.83 1.08 1.27 1.36 1.41 1.49 1.33 1.18 1.04 1.30 1.56 1.59 1.44 1.52 1.50 1.59 1.56 1.51 1.44 1.06 0.81 0.77 0.87 1.23 1.25 1.18 1.25 1.34 1.29 1.18 1.14
1.45 1.53 1.49 1.52 1.45 1.25 1.02 0.88 0.81 0.73 0.73 0.77 0.84 0.96 1.15 1.25 1.32 1.36 1.29 1.19 1.14 1.31 1.48 1.51 1.45 1.61 1.65 1.61 1.33 1.23 1.19 1.15 1.03 0.86 0.92 1.16 1.25 1.10 1.13 1.31 1.38 1.35 1.39
1.94 2.10 2.18 2.12 1.97 1.79 1.55 1.25 1.00 0.86 0.84 0.88 0.92 0.86 0.91 1.01 1.04 1.15 1.15 1.13 1.17 1.22 1.26 1.24 1.24 1.41 1.35 1.23 1.08 1.02 1.02 1.00 0.99 0.95 0.87 0.91 1.04 1.08 1.02 1.12 1.21 1.23 1.33
2.49 2.81 2.95 2.80 2.53 2.14 1.78 1.49 1.27 1.16 1.11 0.99 0.90 0.78 0.67 0.73 0.79 0.87 0.84 0.88 0.94 0.99 1.00 0.96 0.98 1.07 1.12 1.19 1.17 1.02 1.07 1.07 0.99 1.04 1.06 0.93 0.93 0.92 1.15 1.26 1.24 1.18 1.28
3.60 3.97 3.77 3.24 2.88 2.31 1.75 1.45 1.38 1.40 1.30 1.13 1.01 0.87 0.71 0.66 0.70 0.76 0.74 0.73 0.71 0.74 0.76 0.72 0.79 0.88 0.93 0.99 0.96 0.95 0.93 0.91 0.85 0.85 0.99 0.87 0.87 0.93 1.08 1.19 1.28 1.23 1.33
4.08 4.62 4.44 3.67 2.95 2.32 1.91 1.62 1.44 1.37 1.24 1.08 0.98 0.85 0.71 0.62 0.61 0.60 0.57 0.54 0.50 0.52 0.55 0.59 0.67 0.76 0.78 0.83 0.78 0.78 0.77 0.69 0.67 0.69 0.67 0.68 0.73 0.72 0.84 1.02 1.15 1.00 1.17
3.32 3.65 3.56 2.82 2.25 1.88 1.53 1.13 0.94 0.90 0.81 0.72 0.70 0.64 0.61 0.56 0.52 0.47 0.41 0.40 0.37 0.36 0.38 0.40 0.47 0.55 0.59 0.67 0.74 0.71 0.64 0.59 0.58 0.57 0.54 0.52 0.54 0.66 0.78 0.92 0.98 0.96 0.86
2.16 2.17 1.67 1.31 1.07 0.88 0.75 0.56 0.43 0.39 0.36 0.35 0.35 0.35 0.33 0.37 0.40 0.39 0.37 0.36 0.35 0.34 0.34 0.36 0.41 0.45 0.47 0.54 0.60 0.59 0.53 0.50 0.52 0.45 0.51 0.51 0.51 0.66 0.76 0.76 0.82 0.88 0.74
1.35 1.16 0.80 0.60 0.58 0.48 0.38 0.28 0.23 0.21 0.21 0.21 0.22 0.22 0.22 0.23 0.26 0.29 0.33 0.36 0.35 0.31 0.30 0.32 0.34 0.35 0.35 0.38 0.48 0.53 0.48 0.42 0.39 0.39 0.43 0.47 0.53 0.61 0.63 0.72 0.69 0.66 0.70
0.63 0.60 0.63 0.61 0.49 0.35 0.30 0.21 0.16 0.13 0.13 0.13 0.15 0.15 0.17 0.16 0.16 0.18 0.24 0.29 0.30 0.31 0.31 0.25 0.26 0.31 0.32 0.28 0.32 0.40 0.37 0.38 0.42 0.40 0.39 0.45 0.53 0.52 0.51 0.55 0.56 0.58 0.61
0.35 0.52 0.74 0.74 0.52 0.35 0.29 0.24 0.23 0.20 0.19 0.17 0.17 0.18 0.20 0.20 0.20 0.17 0.17 0.22 0.27 0.33 0.38 0.34 0.32 0.30 0.29 0.26 0.26 0.33 0.34 0.30 0.35 0.41 0.39 0.40 0.44 0.38 0.36 0.37 0.38 0.44 0.48
0.30 0.37 0.46 0.54 0.61 0.54 0.48 0.37 0.35 0.34 0.31 0.28 0.26 0.25 0.25 0.26 0.28 0.27 0.27 0.30 0.33 0.33 0.34 0.36 0.39 0.38 0.36 0.33 0.26 0.29 0.42 0.39 0.29 0.34 0.35 0.38 0.39 0.28 0.30 0.34 0.36 0.39 0.46

GEFSSE_prec_meanprecacc_078.txt.gz
Total_Precipitation_Accumulation
0.02 0.05 0.11 0.12 0.08 0.05 0.06 0.09 0.12 0.12 0.11 0.11 0.11 0.10 0.08 0.05 0.03 0.02 0.02 0.02 0.02 0.02 0.03 0.03 0.04 0.05 0.05 0.05 0.05 0.05 0.05 0.06 0.09 0.15 0.21 0.29 0.43 0.59 0.77 0.98 1.15 1.06 0.80
0.00 0.03 0.10 0.14 0.12 0.08 0.08 0.09 0.12 0.13 0.12 0.12 0.12 0.12 0.10 0.06 0.04 0.02 0.02 0.02 0.02 0.02 0.03 0.03 0.04 0.04 0.03 0.02 0.02 0.02 0.04 0.07 0.12 0.21 0.34 0.44 0.53 0.68 0.79 0.95 1.14 0.90 0.64
0.00 0.01 0.05 0.11 0.12 0.10 0.09 0.10 0.11 0.13 0.12 0.12 0.11 0.11 0.08 0.05 0.03 0.02 0.02 0.02 0.02 0.02 0.03 0.03 0.04 0.03 0.03 0.02 0.02 0.02 0.05 0.11 0.19 0.38 0.63 0.69 0.45 0.60 0.72 0.89 0.95 0.60 0.50
0.01 0.01 0.01 0.08 0.11 0.10 0.10 0.11 0.11 0.11 0.10 0.09 0.09 0.08 0.06 0.04 0.03 0.03 0.02 0.02 0.03 0.03 0.03 0.04 0.04 0.03 0.02 0.02 0.02 0.03 0.07 0.14 0.24 0.57 0.80 0.73 0.48 0.44 0.56 0.56 0.61 0.50 0.46
0.01 0.01 0.03 0.07 0.09 0.09 0.09 0.10 0.10 0.09 0.08 0.07 0.07 0.06 0.04 0.03 0.03 0.03 0.03 0.03 0.04 0.05 0.05 0.05 0.05 0.04 0.02 0.01 0.03 0.05 0.09 0.15 0.29 0.51 0.54 0.66 0.71 0.48 0.44 0.42 0.49 0.47 0.39
0.02 0.02 0.04 0.07 0.09 0.10 0.10 0.10 0.09 0.08 0.07 0.06 0.06 0.05 0.03 0.03 0.04 0.04 0.04 0.04 0.05 0.07 0.07 0.07 0.07 0.06 0.04 0.02 0.03 0.06 0.10 0.18 0.32 0.33 0.33 0.43 0.49 0.46 0.42 0.41 0.41 0.39 0.29
0.02 0.02 0.04 0.09 0.11 0.12 0.11 0.12 0.11 0.09 0.08 0.07 0.07 0.05 0.04 0.04 0.05 0.05 0.07 0.07 0.07 0.09 0.10 0.09 0.09 0.09 0.08 0.06 0.05 0.07 0.13 0.19 0.25 0.25 0.29 0.39 0.40 0.40 0.45 0.48 0.44 0.33 0.24
0.03 0.03 0.05 0.10 0.13 0.14 0.14 0.14 0.13 0.11 0.10 0.09 0.08 0.06 0.06 0.06 0.07 0.08 0.10 0.11 0.11 0.11 0.10 0.10 0.09 0.09 0.09 0.09 0.08 0.10 0.14 0.15 0.16 0.19 0.27 0.36 0.40 0.40 0.54 0.51 0.42 0.33 0.26
0.05 0.05 0.06 0.08 0.11 0.14 0.17 0.17 0.15 0.13 0.12 0.11 0.09 0.07 0.06 0.06 0.07 0.08 0.11 0.13 0.14 0.15 0.13 0.12 0.12 0.12 0.13 0.12 0.11 0.11 0.14 0.14 0.16 0.23 0.32 0.33 0.37 0.44 0.69 0.63 0.50 0.42 0.36
0.11 0.09 0.08 0.11 0.18 0.19 0.18 0.18 0.18 0.16 0.14 0.11 0.09 0.07 0.07 0.07 0.11 0.15 0.15 0.17 0.21 0.23 0.22 0.22 0.23 0.24 0.24 0.21 0.19 0.18 0.20 0.16 0.14 0.28 0.30 0.28 0.34 0.53 0.81 0.80 0.69 0.63 0.55
0.15 0.14 0.16 0.21 0.24 0.29 0.29 0.26 0.27 0.26 0.26 0.22 0.22 0.21 0.19 0.25 0.33 0.45 0.42 0.47 0.45 0.45 0.47 0.46 0.47 0.49 0.47 0.33 0.34 0.37 0.27 0.15 0.21 0.30 0.29 0.28 0.39 0.65 0.83 0.91 0.82 0.73 0.70
0.28 0.35 0.33 0.32 0.30 0.31 0.34 0.50 0.59 0.59 0.65 0.60 0.65 0.63 0.61 0.62 0.59 0.56 0.70 0.79 0.85 0.96 0.95 0.95 1.07 0.93 0.68 0.48 0.62 0.68 0.33 0.20 0.19 0.27 0.25 0.32 0.45 0.71 0.91 0.92 0.87 0.77 0.75
0.49 0.48 0.40 0.41 0.46 0.53 0.66 0.72 0.80 0.89 1.02 1.11 1.16 1.14 1.20 1.05 0.89 0.83 1.08 1.22 1.20 1.21 1.11 1.37 1.57 1.16 1.05 1.07 1.05 0.90 0.62 0.48 0.36 0.36 0.44 0.53 0.64 0.88 1.06 0.97 0.91 0.86 0.74
0.78 0.71 0.69 0.67 0.72 0.77 0.83 0.82 0.86 0.87 0.97 1.06 1.15 1.24 1.39 1.41 1.29 1.30 1.43 1.31 1.27 1.31 1.48 1.57 1.69 1.50 1.39 1.36 1.28 1.23 1.12 0.83 0.63 0.62 0.82 0.94 0.99 1.09 1.21 1.16 1.08 0.99 0.90
1.24 1.25 1.23 1.13 1.08 1.03 0.94 0.86 0.83 0.82 0.78 0.77 0.87 1.11 1.29 1.39 1.45 1.55 1.38 1.22 1.08 1.36 1.64 1.68 1.54 1.62 1.61 1.68 1.62 1.58 1.49 1.09 0.87 0.90 0.98 1.28 1.27 1.21 1.28 1.39 1.34 1.23 1.19
1.69 1.75 1.65 1.62 1.54 1.34 1.09 0.94 0.87 0.76 0.77 0.80 0.86 0.98 1.15 1.26 1.34 1.39 1.33 1.22 1.17 1.34 1.53 1.57 1.54 1.72 1.77 1.72 1.40 1.29 1.24 1.19 1.07 0.92 1.05 1.26 1.30 1.15 1.18 1.37 1.45 1.43 1.46
2.24 2.35 2.35 2.22 2.06 1.88 1.64 1.30 1.04 0.91 0.87 0.90 0.94 0.87 0.91 1.02 1.05 1.16 1.17 1.15 1.19 1.24 1.29 1.27 1.29 1.48 1.44 1.32 1.16 1.09 1.09 1.06 1.06 1.02 0.94 1.00 1.15 1.17 1.09 1.19 1.30 1.32 1.41
2.81 3.05 3.13 2.89 2.63 2.24 1.86 1.56 1.32 1.20 1.13 1.00 0.91 0.79 0.67 0.73 0.80 0.87 0.85 0.89 0.94 1.00 1.01 0.97 1.00 1.11 1.17 1.25 1.24 1.07 1.12 1.11 1.03 1.09 1.10 0.99 1.06 1.05 1.26 1.34 1.31 1.24 1.34
3.91 4.22 3.95 3.39 3.01 2.42 1.84 1.51 1.42 1.42 1.32 1.14 1.02 0.87 0.71 0.67 0.71 0.76 0.74 0.74 0.71 0.74 0.76 0.73 0.80 0.90 0.96 1.02 0.98 0.99 0.95 0.93 0.88 0.89 1.02 0.90 0.94 1.03 1.16 1.26 1.33 1.28 1.40
4.31 4.83 4.59 3.82 3.09 2.43 1.99 1.69 1.48 1.40 1.25 1.08 0.98 0.86 0.71 0.62 0.61 0.60 0.58 0.54 0.51 0.52 0.55 0.59 0.69 0.78 0.80 0.85 0.79 0.80 0.78 0.70 0.69 0.71 0.69 0.71 0.77 0.76 0.90 1.09 1.24 1.06 1.25
3.49 3.79 3.68 2.97 2.40 1.98 1.60 1.18 0.98 0.93 0.82 0.73 0.70 0.65 0.61 0.56 0.52 0.47 0.41 0.40 0.37 0.36 0.39 0.41 0.48 0.56 0.59 0.67 0.74 0.72 0.64 0.59 0.58 0.58 0.55 0.54 0.56 0.68 0.82 0.97 1.04 1.03 0.94
2.32 2.31 1.79 1.46 1.19 0.99 0.84 0.61 0.47 0.40 0.37 0.35 0.35 0.35 0.33 0.37 0.40 0.39 0.37 0.36 0.35 0.34 0.34 0.36 0.42 0.45 0.47 0.54 0.60 0.59 0.54 0.51 0.52 0.45 0.52 0.52 0.52 0.68 0.77 0.77 0.85 0.94 0.79
1.47 1.28 0.93 0.72 0.69 0.59 0.48 0.33 0.26 0.22 0.21 0.21 0.22 0.22 0.22 0.23 0.26 0.29 0.33 0.36 0.35 0.31 0.30 0.32 0.34 0.35 0.36 0.38 0.48 0.53 0.49 0.44 0.40 0.39 0.43 0.47 0.53 0.61 0.63 0.73 0.70 0.68 0.74
0.72 0.70 0.74 0.70 0.59 0.43 0.38 0.27 0.19 0.15 0.14 0.14 0.15 0.15 0.17 0.16 0.16 0.18 0.24 0.29 0.30 0.31 0.31 0.25 0.26 0.31 0.32 0.28 0.32 0.40 0.38 0.39 0.44 0.42 0.39 0.45 0.53 0.52 0.51 0.55 0.57 0.59 0.63
0.44 0.59 0.81 0.81 0.59 0.41 0.35 0.30 0.26 0.23 0.20 0.18 0.18 0.19 0.20 0.20 0.20 0.17 0.17 0.22 0.27 0.33 0.38 0.34 0.32 0.30 0.29 0.26 0.26 0.34 0.34 0.30 0.35 0.42 0.40 0.40 0.44 0.38 0.36 0.37 0.38 0.45 0.49
0.38 0.43 0.50 0.58 0.64 0.57 0.51 0.42 0.38 0.37 0.35 0.30 0.27 0.26 0.26 0.26 0.29 0.27 0.27 0.30 0.33 0.33 0.34 0.36 0.39 0.38 0.36 0.33 0.26 0.29 0.42 0.39 0.29 0.35 0.35 0.39 0.39 0.28 0.30 0.34 0.36 0.40 0.47

GEFSSE_prec_meanprecacc_084.txt.gz
Total_Precipitation_Accumulation
0.04 0.05 0.12 0.13 0.08 0.05 0.06 0.10 0.12 0.12 0.11 0.11 0.11 0.10 0.08 0.05 0.03 0.02 0.02 0.02 0.02 0.03 0.04 0.04 0.04 0.06 0.06 0.06 0.07 0.08 0.09 0.12 0.19 0.23 0.29 0.36 0.51 0.66 0.83 1.04 1.20 1.10 0.84
0.01 0.03 0.11 0.15 0.12 0.09 0.08 0.10 0.13 0.14 0.13 0.13 0.12 0.12 0.10 0.07 0.04 0.03 0.02 0.02 0.02 0.03 0.03 0.04 0.04 0.04 0.04 0.04 0.05 0.05 0.08 0.15 0.22 0.30 0.44 0.52 0.62 0.77 0.87 1.00 1.18 0.93 0.68
0.01 0.01 0.06 0.12 0.12 0.10 0.09 0.11 0.12 0.13 0.13 0.12 0.11 0.11 0.08 0.05 0.04 0.02 0.02 0.02 0.02 0.03 0.03 0.04 0.04 0.03 0.03 0.03 0.04 0.06 0.11 0.18 0.28 0.46 0.69 0.73 0.50 0.67 0.77 0.93 1.00 0.63 0.53
0.01 0.01 0.02 0.09 0.11 0.10 0.10 0.11 0.12 0.11 0.10 0.10 0.09 0.08 0.06 0.04 0.04 0.03 0.03 0.02 0.03 0.04 0.04 0.04 0.04 0.03 0.02 0.02 0.03 0.07 0.12 0.20 0.33 0.63 0.83 0.75 0.50 0.47 0.60 0.60 0.64 0.52 0.49
0.02 0.01 0.03 0.07 0.09 0.10 0.10 0.10 0.10 0.09 0.08 0.08 0.07 0.07 0.05 0.04 0.04 0.04 0.03 0.03 0.04 0.05 0.06 0.06 0.05 0.04 0.03 0.03 0.05 0.09 0.16 0.27 0.43 0.59 0.57 0.67 0.72 0.51 0.46 0.45 0.52 0.49 0.41
0.03 0.02 0.04 0.07 0.09 0.10 0.10 0.10 0.09 0.08 0.07 0.07 0.07 0.06 0.04 0.03 0.04 0.04 0.04 0.05 0.06 0.07 0.08 0.07 0.07 0.06 0.05 0.04 0.06 0.11 0.19 0.33 0.47 0.42 0.38 0.45 0.50 0.49 0.44 0.44 0.43 0.41 0.31
0.02 0.02 0.04 0.09 0.12 0.13 0.12 0.12 0.11 0.10 0.08 0.07 0.07 0.06 0.04 0.04 0.05 0.06 0.07 0.07 0.08 0.10 0.10 0.09 0.09 0.09 0.09 0.07 0.08 0.12 0.22 0.36 0.40 0.38 0.39 0.44 0.43 0.42 0.48 0.51 0.46 0.35 0.27
0.04 0.03 0.05 0.10 0.13 0.15 0.15 0.15 0.14 0.12 0.10 0.09 0.08 0.07 0.06 0.07 0.07 0.08 0.10 0.11 0.11 0.12 0.10 0.10 0.10 0.09 0.09 0.09 0.10 0.14 0.21 0.29 0.32 0.33 0.35 0.40 0.44 0.41 0.56 0.53 0.44 0.34 0.28
0.12 0.06 0.06 0.08 0.11 0.15 0.18 0.18 0.16 0.13 0.12 0.11 0.09 0.07 0.06 0.06 0.07 0.08 0.11 0.13 0.15 0.15 0.13 0.12 0.12 0.12 0.13 0.13 0.13 0.15 0.19 0.23 0.32 0.47 0.46 0.37 0.41 0.46 0.71 0.65 0.51 0.44 0.38
0.21 0.12 0.09 0.12 0.18 0.19 0.19 0.19 0.19 0.16 0.14 0.11 0.09 0.07 0.07 0.07 0.11 0.15 0.16 0.18 0.21 0.23 0.22 0.22 0.23 0.25 0.25 0.22 0.21 0.22 0.26 0.25 0.33 0.53 0.47 0.32 0.38 0.56 0.82 0.81 0.70 0.65 0.56
0.26 0.20 0.20 0.23 0.25 0.29 0.29 0.27 0.27 0.27 0.26 0.22 0.22 0.21 0.20 0.25 0.34 0.46 0.44 0.48 0.45 0.45 0.47 0.46 0.47 0.50 0.47 0.35 0.37 0.41 0.32 0.27 0.46 0.57 0.44 0.35 0.44 0.69 0.85 0.91 0.83 0.74 0.71
0.51 0.46 0.41 0.38 0.33 0.32 0.35 0.51 0.60 0.60 0.65 0.61 0.66 0.64 0.63 0.64 0.61 0.58 0.75 0.83 0.88 0.96 0.96 0.95 1.08 0.94 0.69 0.50 0.66 0.73 0.40 0.33 0.42 0.47 0.37 0.40 0.52 0.76 0.93 0.93 0.87 0.79 0.76
0.76 0.66 0.52 0.50 0.52 0.58 0.69 0.73 0.81 0.90 1.02 1.12 1.17 1.16 1.21 1.07 0.91 0.85 1.10 1.25 1.22 1.22 1.12 1.39 1.59 1.18 1.08 1.11 1.11 0.98 0.74 0.62 0.61 0.55 0.56 0.63 0.72 0.94 1.09 0.98 0.92 0.87 0.75
1.05 1.05 0.97 0.86 0.85 0.89 0.90 0.85 0.87 0.88 0.98 1.06 1.16 1.25 1.41 1.42 1.30 1.32 1.44 1.32 1.28 1.31 1.49 1.58 1.70 1.51 1.42 1.41 1.36 1.35 1.28 0.99 0.88 0.85 0.95 1.04 1.07 1.16 1.25 1.19 1.10 1.00 0.91
1.54 1.61 1.77 1.49 1.28 1.18 1.02 0.89 0.85 0.83 0.79 0.78 0.88 1.12 1.30 1.40 1.46 1.55 1.39 1.23 1.09 1.36 1.64 1.69 1.55 1.64 1.64 1.72 1.69 1.67 1.65 1.31 1.12 1.09 1.14 1.37 1.35 1.28 1.34 1.42 1.37 1.25 1.21
2.10 2.11 2.15 2.09 1.79 1.47 1.19 0.99 0.90 0.79 0.79 0.81 0.88 0.98 1.16 1.26 1.34 1.39 1.33 1.23 1.18 1.34 1.53 1.57 1.55 1.73 1.79 1.75 1.45 1.37 1.35 1.36 1.24 1.03 1.14 1.33 1.37 1.22 1.25 1.43 1.50 1.46 1.49
2.61 2.70 2.71 2.63 2.33 2.04 1.74 1.36 1.07 0.95 0.89 0.92 0.95 0.88 0.92 1.02 1.05 1.16 1.18 1.15 1.19 1.25 1.30 1.28 1.29 1.48 1.45 1.33 1.18 1.13 1.16 1.15 1.15 1.14 1.02 1.05 1.19 1.25 1.16 1.26 1.36 1.38 1.47
3.18 3.48 3.47 3.16 2.85 2.40 1.96 1.63 1.38 1.26 1.16 1.01 0.92 0.79 0.68 0.73 0.80 0.87 0.85 0.89 0.95 1.00 1.01 0.98 1.01 1.11 1.17 1.26 1.25 1.10 1.16 1.16 1.08 1.20 1.21 1.05 1.10 1.09 1.31 1.41 1.38 1.31 1.41
4.32 4.69 4.36 3.67 3.20 2.57 1.95 1.61 1.50 1.48 1.34 1.15 1.03 0.87 0.71 0.67 0.71 0.76 0.74 0.74 0.72 0.74 0.76 0.73 0.81 0.91 0.96 1.03 0.99 1.01 0.98 0.96 0.90 0.92 1.07 0.95 0.99 1.08 1.21 1.31 1.38 1.34 1.48
4.74 5.23 4.92 4.10 3.28 2.58 2.09 1.78 1.55 1.44 1.28 1.09 0.99 0.86 0.71 0.62 0.61 0.60 0.58 0.54 0.51 0.52 0.55 0.59 0.69 0.78 0.80 0.85 0.80 0.81 0.79 0.71 0.71 0.74 0.72 0.75 0.82 0.81 0.95 1.13 1.27 1.09 1.31
3.88 4.21 4.04 3.27 2.61 2.11 1.67 1.22 1.01 0.95 0.84 0.74 0.71 0.65 0.61 0.57 0.52 0.47 0.41 0.40 0.37 0.36 0.39 0.41 0.48 0.56 0.59 0.67 0.75 0.72 0.65 0.60 0.59 0.58 0.56 0.55 0.58 0.70 0.86 1.00 1.07 1.05 0.96
2.60 2.60 2.08 1.71 1.39 1.09 0.89 0.65 0.49 0.42 0.38 0.36 0.35 0.35 0.34 0.37 0.40 0.39 0.37 0.36 0.35 0.34 0.34 0.36 0.42 0.45 0.47 0.54 0.60 0.59 0.54 0.52 0.53 0.46 0.52 0.52 0.52 0.68 0.78 0.79 0.87 0.95 0.80
1.71 1.48 1.13 0.91 0.85 0.69 0.53 0.36 0.28 0.23 0.22 0.22 0.22 0.22 0.22 0.23 0.26 0.29 0.33 0.36 0.35 0.31 0.30 0.32 0.34 0.36 0.36 0.38 0.48 0.53 0.49 0.45 0.41 0.39 0.43 0.47 0.53 0.61 0.64 0.73 0.70 0.69 0.75
1.01 0.92 0.93 0.86 0.73 0.54 0.43 0.30 0.20 0.16 0.15 0.14 0.15 0.16 0.17 0.16 0.16 0.18 0.24 0.29 0.30 0.31 0.31 0.25 0.26 0.31 0.32 0.28 0.32 0.40 0.38 0.39 0.44 0.42 0.40 0.45 0.53 0.52 0.51 0.55 0.58 0.60 0.63
0.69 0.81 0.99 0.96 0.75 0.53 0.40 0.32 0.29 0.25 0.22 0.19 0.18 0.19 0.20 0.20 0.20 0.17 0.17 0.22 0.27 0.33 0.38 0.35 0.32 0.30 0.29 0.26 0.26 0.34 0.34 0.30 0.35 0.42 0.41 0.40 0.44 0.38 0.36 0.37 0.38 0.45 0.49
0.61 0.61 0.66 0.71 0.77 0.69 0.58 0.44 0.40 0.39 0.36 0.30 0.27 0.26 0.26 0.26 0.29 0.27 0.27 0.30 0.33 0.33 0.34 0.36 0.39 0.38 0.36 0.33 0.26 0.29 0.42 0.39 0.29 0.35 0.35 0.39 0.39 0.28 0.30 0.34 0.36 0.40 0.47

GEFSSE_prec_meanprecacc_090.txt.gz
Total_Precipitation_Accumulation
0.06 0.07 0.16 0.16 0.08 0.05 0.07 0.10 0.12 0.12 0.11 0.11 0.11 0.10 0.09 0.05 0.03 0.03 0.02 0.02 0.02 0.03 0.04 0.04 0.05 0.06 0.07 0.08 0.10 0.11 0.13 0.16 0.24 0.30 0.38 0.44 0.59 0.75 0.93 1.12 1.26 1.14 0.89
0.01 0.03 0.15 0.18 0.13 0.09 0.08 0.10 0.13 0.14 0.13 0.13 0.12 0.12 0.10 0.07 0.04 0.03 0.02 0.03 0.03 0.03 0.04 0.04 0.05 0.05 0.06 0.06 0.07 0.08 0.12 0.19 0.26 0.38 0.54 0.63 0.73 0.87 0.94 1.07 1.23 0.97 0.72
0.01 0.01 0.07 0.15 0.13 0.11 0.10 0.11 0.12 0.13 0.13 0.12 0.12 0.11 0.09 0.05 0.04 0.03 0.03 0.02 0.03 0.04 0.03 0.04 0.05 0.04 0.04 0.05 0.05 0.08 0.14 0.22 0.32 0.53 0.76 0.81 0.59 0.75 0.83 1.00 1.07 0.69 0.58
0.01 0.01 0.02 0.11 0.12 0.11 0.11 0.12 0.12 0.11 0.10 0.10 0.09 0.09 0.06 0.04 0.04 0.04 0.03 0.03 0.04 0.04 0.04 0.05 0.05 0.04 0.03 0.03 0.05 0.09 0.15 0.25 0.39 0.68 0.85 0.78 0.55 0.54 0.66 0.67 0.72 0.59 0.53
0.03 0.02 0.04 0.09 0.10 0.10 0.10 0.10 0.10 0.09 0.08 0.08 0.08 0.07 0.05 0.04 0.04 0.04 0.04 0.04 0.05 0.06 0.06 0.06 0.06 0.05 0.04 0.04 0.06 0.12 0.20 0.32 0.48 0.61 0.57 0.69 0.75 0.58 0.54 0.52 0.58 0.53 0.46
0.04 0.03 0.06 0.09 0.10 0.11 0.10 0.10 0.09 0.08 0.07 0.07 0.07 0.06 0.04 0.04 0.04 0.05 0.05 0.05 0.06 0.08 0.08 0.07 0.07 0.07 0.06 0.06 0.08 0.15 0.26 0.39 0.48 0.42 0.38 0.45 0.52 0.55 0.51 0.49 0.48 0.45 0.34
0.03 0.04 0.06 0.11 0.12 0.13 0.12 0.12 0.11 0.10 0.08 0.08 0.08 0.06 0.05 0.05 0.05 0.06 0.07 0.08 0.08 0.10 0.10 0.10 0.10 0.10 0.10 0.09 0.11 0.17 0.29 0.42 0.40 0.39 0.40 0.45 0.44 0.46 0.52 0.56 0.51 0.38 0.29
0.04 0.04 0.07 0.12 0.14 0.15 0.15 0.15 0.14 0.12 0.10 0.10 0.09 0.07 0.07 0.07 0.07 0.08 0.10 0.12 0.11 0.12 0.11 0.11 0.10 0.10 0.10 0.11 0.13 0.17 0.26 0.32 0.32 0.33 0.35 0.41 0.45 0.44 0.59 0.57 0.48 0.37 0.31
0.14 0.08 0.08 0.09 0.12 0.15 0.19 0.18 0.16 0.13 0.12 0.11 0.10 0.08 0.07 0.07 0.08 0.09 0.11 0.14 0.15 0.15 0.13 0.13 0.12 0.13 0.14 0.14 0.15 0.17 0.24 0.27 0.33 0.48 0.47 0.38 0.43 0.48 0.74 0.69 0.54 0.46 0.40
0.30 0.19 0.13 0.13 0.19 0.20 0.19 0.19 0.19 0.17 0.14 0.12 0.10 0.08 0.08 0.08 0.12 0.16 0.16 0.18 0.22 0.24 0.23 0.23 0.24 0.26 0.26 0.24 0.23 0.25 0.30 0.28 0.34 0.53 0.47 0.33 0.40 0.58 0.85 0.85 0.72 0.67 0.58
0.41 0.39 0.31 0.28 0.27 0.30 0.30 0.27 0.29 0.28 0.27 0.23 0.23 0.22 0.21 0.26 0.34 0.47 0.45 0.49 0.46 0.46 0.48 0.47 0.48 0.51 0.49 0.36 0.39 0.43 0.35 0.29 0.47 0.57 0.45 0.36 0.47 0.73 0.88 0.93 0.85 0.77 0.74
0.61 0.58 0.54 0.46 0.38 0.34 0.37 0.51 0.61 0.60 0.66 0.61 0.66 0.65 0.64 0.65 0.61 0.60 0.77 0.86 0.89 0.98 0.97 0.97 1.11 0.97 0.71 0.51 0.67 0.75 0.42 0.36 0.43 0.48 0.38 0.42 0.55 0.80 0.97 0.96 0.90 0.82 0.79
0.85 0.74 0.60 0.58 0.59 0.62 0.72 0.75 0.81 0.91 1.03 1.12 1.17 1.16 1.22 1.07 0.91 0.86 1.11 1.26 1.24 1.25 1.14 1.42 1.62 1.20 1.11 1.12 1.12 0.99 0.75 0.64 0.62 0.56 0.56 0.65 0.75 0.98 1.13 1.02 0.97 0.93 0.79
1.17 1.15 1.04 0.92 0.91 0.94 0.93 0.88 0.89 0.89 0.99 1.07 1.16 1.26 1.41 1.43 1.31 1.33 1.45 1.33 1.30 1.33 1.51 1.60 1.72 1.54 1.45 1.43 1.37 1.36 1.30 1.01 0.90 0.86 0.96 1.07 1.11 1.21 1.30 1.23 1.14 1.05 0.96
1.77 1.80 1.91 1.61 1.37 1.24 1.07 0.93 0.87 0.85 0.80 0.79 0.88 1.13 1.30 1.41 1.48 1.57 1.41 1.24 1.10 1.38 1.66 1.71 1.56 1.66 1.67 1.76 1.73 1.70 1.68 1.34 1.15 1.11 1.15 1.42 1.40 1.34 1.41 1.48 1.42 1.30 1.26
2.49 2.42 2.38 2.25 1.90 1.55 1.25 1.04 0.93 0.81 0.80 0.82 0.89 0.99 1.16 1.28 1.35 1.40 1.34 1.23 1.19 1.36 1.55 1.59 1.56 1.75 1.82 1.80 1.50 1.42 1.38 1.38 1.28 1.07 1.16 1.37 1.43 1.31 1.35 1.53 1.59 1.55 1.58
2.92 3.00 3.00 2.87 2.48 2.15 1.83 1.43 1.12 0.98 0.91 0.94 0.96 0.90 0.94 1.04 1.06 1.17 1.18 1.16 1.20 1.26 1.31 1.29 1.30 1.50 1.46 1.35 1.21 1.16 1.18 1.18 1.19 1.17 1.05 1.08 1.23 1.33 1.27 1.39 1.48 1.49 1.58
3.49 3.75 3.73 3.41 3.05 2.57 2.10 1.73 1.46 1.31 1.19 1.03 0.93 0.81 0.69 0.74 0.80 0.87 0.85 0.89 0.95 1.00 1.02 0.99 1.02 1.12 1.18 1.26 1.27 1.12 1.19 1.20 1.13 1.23 1.24 1.09 1.14 1.13 1.39 1.54 1.51 1.43 1.56
4.70 5.00 4.64 3.92 3.43 2.77 2.11 1.74 1.61 1.56 1.39 1.19 1.05 0.89 0.72 0.67 0.71 0.76 0.74 0.74 0.72 0.75 0.77 0.73 0.81 0.91 0.97 1.03 1.00 1.02 0.99 0.99 0.94 0.95 1.11 0.99 1.02 1.11 1.26 1.39 1.49 1.44 1.62
5.21 5.65 5.26 4.43 3.58 2.81 2.29 1.93 1.68 1.55 1.35 1.14 1.03 0.88 0.72 0.63 0.62 0.60 0.58 0.55 0.51 0.52 0.56 0.60 0.69 0.78 0.80 0.85 0.80 0.82 0.80 0.73 0.72 0.76 0.74 0.77 0.84 0.83 0.97 1.17 1.32 1.15 1.42
4.37 4.70 4.42 3.59 2.91 2.35 1.86 1.38 1.14 1.04 0.91 0.79 0.75 0.67 0.62 0.57 0.52 0.47 0.41 0.41 0.37 0.37 0.39 0.41 0.48 0.56 0.59 0.67 0.75 0.73 0.65 0.61 0.60 0.59 0.57 0.57 0.59 0.71 0.87 1.03 1.10 1.07 0.99
2.98 3.00 2.42 2.01 1.64 1.29 1.06 0.80 0.62 0.53 0.46 0.42 0.40 0.37 0.34 0.37 0.40 0.39 0.37 0.36 0.35 0.35 0.34 0.36 0.42 0.45 0.47 0.54 0.60 0.59 0.54 0.52 0.53 0.46 0.52 0.53 0.53 0.69 0.79 0.80 0.88 0.96 0.82
1.95 1.75 1.41 1.20 1.11 0.87 0.71 0.52 0.40 0.33 0.30 0.27 0.24 0.23 0.22 0.23 0.26 0.29 0.33 0.36 0.35 0.31 0.30 0.33 0.34 0.36 0.36 0.38 0.48 0.53 0.49 0.45 0.41 0.39 0.43 0.47 0.54 0.62 0.64 0.74 0.71 0.69 0.76
1.21 1.09 1.14 1.13 1.00 0.76 0.62 0.42 0.28 0.21 0.19 0.17 0.16 0.16 0.18 0.17 0.16 0.18 0.24 0.29 0.30 0.31 0.31 0.25 0.26 0.31 0.32 0.28 0.32 0.40 0.38 0.39 0.44 0.42 0.40 0.45 0.53 0.52 0.51 0.56 0.58 0.60 0.63
0.84 0.95 1.15 1.15 0.94 0.71 0.57 0.46 0.40 0.31 0.26 0.21 0.19 0.20 0.20 0.20 0.20 0.17 0.17 0.22 0.27 0.33 0.38 0.35 0.32 0.30 0.29 0.26 0.26 0.34 0.34 0.30 0.35 0.42 0.41 0.40 0.44 0.38 0.36 0.37 0.38 0.45 0.49
0.73 0.75 0.82 0.87 0.92 0.83 0.74 0.59 0.51 0.46 0.41 0.33 0.28 0.26 0.26 0.26 0.29 0.27 0.27 0.30 0.33 0.33 0.34 0.36 0.39 0.38 0.36 0.33 0.26 0.29 0.42 0.39 0.29 0.35 0.35 0.39 0.39 0.28 0.30 0.34 0.36 0.40 0.47

GEFSSE_prec_meanprecacc_096.txt.gz
Total_Precipitation_Accumulation
0.06 0.08 0.17 0.17 0.09 0.05 0.07 0.10 0.13 0.13 0.11 0.12 0.11 0.10 0.09 0.06 0.04 0.03 0.02 0.03 0.03 0.04 0.05 0.05 0.07 0.08 0.09 0.10 0.13 0.14 0.15 0.20 0.32 0.40 0.44 0.52 0.68 0.84 1.02 1.21 1.32 1.17 0.92
0.01 0.03 0.16 0.20 0.14 0.09 0.09 0.11 0.13 0.14 0.13 0.13 0.13 0.12 0.11 0.07 0.05 0.03 0.03 0.03 0.03 0.04 0.04 0.05 0.06 0.06 0.07 0.08 0.09 0.11 0.15 0.24 0.35 0.49 0.63 0.71 0.82 0.94 1.02 1.15 1.28 1.01 0.76
0.01 0.01 0.08 0.16 0.14 0.12 0.10 0.11 0.12 0.13 0.13 0.12 0.12 0.11 0.09 0.06 0.04 0.03 0.03 0.03 0.04 0.04 0.04 0.05 0.06 0.05 0.05 0.06 0.07 0.11 0.17 0.28 0.42 0.63 0.85 0.89 0.66 0.83 0.91 1.08 1.13 0.74 0.62
0.01 0.01 0.03 0.11 0.13 0.11 0.11 0.12 0.12 0.11 0.10 0.10 0.10 0.09 0.07 0.05 0.04 0.04 0.04 0.04 0.04 0.05 0.05 0.05 0.06 0.05 0.03 0.05 0.07 0.12 0.19 0.31 0.46 0.74 0.91 0.83 0.61 0.61 0.75 0.75 0.78 0.64 0.58
0.03 0.02 0.04 0.09 0.11 0.11 0.10 0.11 0.10 0.09 0.08 0.08 0.08 0.07 0.06 0.05 0.05 0.05 0.04 0.05 0.06 0.06 0.07 0.07 0.07 0.06 0.05 0.05 0.08 0.15 0.24 0.36 0.50 0.64 0.60 0.76 0.85 0.65 0.62 0.59 0.64 0.58 0.50
0.04 0.03 0.06 0.09 0.11 0.11 0.10 0.11 0.10 0.09 0.08 0.07 0.07 0.07 0.05 0.04 0.05 0.05 0.06 0.06 0.07 0.08 0.09 0.09 0.09 0.08 0.08 0.08 0.10 0.18 0.29 0.41 0.49 0.43 0.41 0.51 0.58 0.63 0.59 0.57 0.53 0.48 0.37
0.03 0.04 0.06 0.12 0.13 0.13 0.12 0.12 0.12 0.10 0.09 0.08 0.08 0.06 0.05 0.05 0.06 0.07 0.08 0.09 0.09 0.10 0.11 0.11 0.11 0.11 0.13 0.13 0.15 0.20 0.32 0.43 0.41 0.39 0.42 0.49 0.49 0.53 0.61 0.63 0.56 0.42 0.32
0.04 0.04 0.07 0.12 0.15 0.16 0.15 0.15 0.14 0.12 0.11 0.10 0.09 0.08 0.07 0.08 0.08 0.09 0.11 0.12 0.12 0.12 0.11 0.12 0.11 0.11 0.13 0.15 0.19 0.23 0.30 0.35 0.33 0.34 0.37 0.44 0.49 0.50 0.66 0.63 0.52 0.42 0.35
0.14 0.08 0.09 0.10 0.13 0.17 0.19 0.19 0.16 0.14 0.13 0.12 0.10 0.09 0.08 0.08 0.08 0.10 0.12 0.15 0.15 0.16 0.14 0.14 0.14 0.15 0.17 0.18 0.20 0.24 0.29 0.30 0.34 0.48 0.48 0.41 0.46 0.53 0.79 0.73 0.58 0.50 0.45
0.31 0.21 0.16 0.17 0.22 0.22 0.21 0.20 0.20 0.18 0.15 0.12 0.11 0.09 0.08 0.09 0.12 0.17 0.17 0.19 0.22 0.25 0.24 0.23 0.25 0.28 0.29 0.27 0.28 0.31 0.36 0.32 0.35 0.53 0.48 0.35 0.43 0.63 0.90 0.89 0.76 0.70 0.63
0.48 0.47 0.37 0.34 0.33 0.35 0.33 0.29 0.30 0.29 0.28 0.24 0.25 0.24 0.22 0.27 0.36 0.48 0.46 0.50 0.47 0.46 0.49 0.48 0.49 0.52 0.51 0.39 0.43 0.49 0.40 0.33 0.49 0.58 0.46 0.38 0.50 0.77 0.93 0.99 0.90 0.82 0.79
0.71 0.71 0.66 0.57 0.45 0.40 0.40 0.55 0.65 0.64 0.68 0.64 0.68 0.68 0.66 0.67 0.63 0.61 0.77 0.87 0.90 0.99 0.98 0.98 1.12 0.98 0.73 0.54 0.70 0.79 0.47 0.40 0.45 0.49 0.40 0.45 0.60 0.86 1.02 1.01 0.95 0.88 0.84
0.98 0.90 0.72 0.71 0.67 0.68 0.76 0.79 0.85 0.95 1.06 1.15 1.20 1.20 1.25 1.09 0.92 0.87 1.13 1.29 1.27 1.28 1.17 1.44 1.63 1.22 1.13 1.16 1.16 1.02 0.78 0.68 0.66 0.58 0.58 0.68 0.80 1.05 1.19 1.08 1.03 0.98 0.85
1.34 1.35 1.23 1.05 1.01 1.02 0.99 0.92 0.91 0.91 1.01 1.09 1.19 1.28 1.43 1.45 1.34 1.36 1.49 1.38 1.35 1.38 1.56 1.64 1.75 1.57 1.48 1.45 1.40 1.39 1.32 1.04 0.93 0.89 1.00 1.11 1.16 1.27 1.37 1.30 1.20 1.12 1.01
1.94 1.96 2.14 1.79 1.49 1.35 1.17 1.00 0.91 0.87 0.82 0.82 0.91 1.15 1.34 1.47 1.54 1.63 1.46 1.30 1.16 1.43 1.72 1.75 1.59 1.70 1.72 1.79 1.75 1.73 1.72 1.38 1.18 1.15 1.20 1.48 1.47 1.41 1.49 1.56 1.49 1.37 1.32
2.66 2.59 2.54 2.45 2.04 1.67 1.37 1.13 0.98 0.83 0.84 0.86 0.92 1.02 1.21 1.34 1.42 1.47 1.40 1.29 1.23 1.39 1.59 1.62 1.60 1.79 1.88 1.85 1.55 1.47 1.43 1.44 1.34 1.13 1.22 1.43 1.51 1.38 1.42 1.62 1.69 1.65 1.66
3.08 3.16 3.11 2.99 2.60 2.26 1.95 1.54 1.20 1.03 0.95 0.97 0.99 0.93 0.98 1.09 1.11 1.22 1.23 1.19 1.23 1.28 1.34 1.32 1.33 1.53 1.50 1.40 1.26 1.21 1.23 1.24 1.26 1.24 1.13 1.17 1.32 1.40 1.34 1.46 1.56 1.59 1.70
3.66 3.93 3.87 3.53 3.18 2.68 2.22 1.86 1.58 1.40 1.25 1.07 0.96 0.83 0.72 0.78 0.85 0.92 0.89 0.92 0.97 1.03 1.04 1.01 1.03 1.14 1.22 1.31 1.30 1.16 1.25 1.28 1.21 1.32 1.34 1.19 1.24 1.22 1.46 1.59 1.56 1.49 1.64
4.86 5.21 4.84 4.07 3.56 2.89 2.24 1.89 1.74 1.67 1.48 1.24 1.08 0.92 0.76 0.71 0.74 0.81 0.78 0.77 0.74 0.77 0.78 0.75 0.82 0.93 1.00 1.07 1.02 1.06 1.03 1.04 1.00 1.02 1.18 1.06 1.08 1.19 1.35 1.47 1.54 1.49 1.68
5.35 5.85 5.52 4.67 3.76 2.98 2.46 2.10 1.81 1.66 1.44 1.21 1.08 0.94 0.77 0.66 0.65 0.63 0.60 0.56 0.52 0.53 0.58 0.62 0.71 0.80 0.82 0.87 0.81 0.84 0.81 0.76 0.77 0.80 0.80 0.83 0.90 0.88 1.02 1.21 1.39 1.20 1.46
4.51 4.88 4.68 3.87 3.13 2.49 1.99 1.51 1.26 1.14 0.99 0.86 0.81 0.74 0.67 0.60 0.54 0.49 0.42 0.42 0.38 0.38 0.41 0.43 0.50 0.58 0.61 0.68 0.76 0.74 0.67 0.63 0.62 0.61 0.60 0.60 0.62 0.75 0.92 1.08 1.16 1.14 1.04
3.12 3.13 2.60 2.23 1.84 1.43 1.19 0.93 0.75 0.64 0.55 0.50 0.46 0.42 0.38 0.40 0.42 0.40 0.39 0.37 0.36 0.35 0.34 0.37 0.43 0.46 0.48 0.55 0.62 0.61 0.56 0.54 0.55 0.47 0.53 0.54 0.55 0.72 0.83 0.83 0.92 1.02 0.87
2.10 1.88 1.56 1.37 1.27 1.02 0.86 0.66 0.50 0.42 0.38 0.33 0.29 0.27 0.26 0.25 0.27 0.30 0.33 0.36 0.35 0.32 0.30 0.33 0.35 0.36 0.36 0.39 0.48 0.55 0.51 0.47 0.42 0.40 0.44 0.48 0.54 0.63 0.66 0.75 0.72 0.72 0.80
1.32 1.20 1.27 1.26 1.12 0.90 0.78 0.55 0.36 0.29 0.26 0.23 0.22 0.21 0.21 0.18 0.17 0.19 0.24 0.30 0.31 0.31 0.31 0.25 0.26 0.31 0.32 0.28 0.32 0.40 0.38 0.40 0.45 0.44 0.40 0.45 0.53 0.52 0.52 0.57 0.58 0.60 0.65
0.94 1.04 1.24 1.26 1.05 0.84 0.71 0.61 0.53 0.43 0.37 0.30 0.25 0.24 0.23 0.21 0.20 0.18 0.18 0.22 0.27 0.34 0.38 0.35 0.33 0.31 0.30 0.26 0.27 0.34 0.35 0.30 0.36 0.43 0.42 0.41 0.44 0.38 0.37 0.38 0.39 0.46 0.51
0.81 0.82 0.90 0.97 1.03 0.95 0.86 0.74 0.69 0.60 0.51 0.41 0.33 0.29 0.28 0.28 0.29 0.28 0.27 0.30 0.33 0.33 0.34 0.37 0.40 0.38 0.36 0.33 0.26 0.29 0.43 0.40 0.30 0.35 0.36 0.40 0.40 0.28 0.30 0.35 0.37 0.40 0.48

GEFSSE_prec_meanprecacc_102.txt.gz
Total_Precipitation_Accumulation
0.06 0.08 0.17 0.17 0.09 0.06 0.08 0.11 0.15 0.15 0.13 0.13 0.12 0.11 0.10 0.06 0.04 0.03 0.03 0.03 0.04 0.05 0.06 0.07 0.09 0.11 0.12 0.13 0.15 0.17 0.19 0.23 0.37 0.45 0.49 0.58 0.76 0.91 1.12 1.33 1.45 1.23 0.96
0.01 0.03 0.16 0.20 0.14 0.10 0.09 0.12 0.15 0.16 0.15 0.14 0.14 0.13 0.12 0.08 0.06 0.05 0.04 0.04 0.04 0.05 0.06 0.07 0.08 0.10 0.10 0.10 0.11 0.14 0.19 0.29 0.41 0.56 0.70 0.80 0.91 1.04 1.14 1.29 1.44 1.05 0.81
0.01 0.01 0.08 0.16 0.14 0.12 0.11 0.12 0.13 0.15 0.15 0.14 0.13 0.12 0.10 0.07 0.06 0.04 0.04 0.04 0.05 0.05 0.05 0.06 0.08 0.08 0.08 0.09 0.10 0.14 0.21 0.35 0.53 0.75 0.98 1.01 0.75 0.94 1.03 1.23 1.27 0.80 0.69
0.01 0.01 0.03 0.11 0.13 0.11 0.11 0.12 0.12 0.12 0.11 0.11 0.10 0.10 0.08 0.06 0.06 0.05 0.05 0.05 0.06 0.06 0.06 0.07 0.08 0.07 0.06 0.07 0.10 0.16 0.22 0.36 0.56 0.92 1.08 0.97 0.71 0.70 0.88 0.87 0.88 0.72 0.64
0.03 0.02 0.04 0.09 0.11 0.11 0.11 0.11 0.11 0.10 0.09 0.09 0.09 0.08 0.06 0.06 0.06 0.06 0.06 0.06 0.07 0.08 0.09 0.09 0.09 0.09 0.08 0.07 0.11 0.19 0.26 0.40 0.58 0.84 0.74 0.89 0.97 0.75 0.73 0.69 0.73 0.64 0.55
0.04 0.03 0.06 0.09 0.11 0.11 0.11 0.11 0.10 0.09 0.08 0.08 0.08 0.07 0.05 0.05 0.06 0.07 0.07 0.07 0.09 0.10 0.11 0.11 0.11 0.11 0.11 0.10 0.13 0.20 0.31 0.45 0.60 0.54 0.52 0.65 0.68 0.73 0.69 0.65 0.61 0.54 0.43
0.03 0.04 0.06 0.12 0.13 0.13 0.13 0.13 0.12 0.11 0.09 0.09 0.09 0.07 0.06 0.06 0.07 0.08 0.09 0.10 0.10 0.13 0.13 0.13 0.13 0.13 0.15 0.15 0.16 0.22 0.34 0.48 0.51 0.46 0.51 0.63 0.59 0.61 0.70 0.71 0.65 0.50 0.39
0.04 0.04 0.07 0.12 0.15 0.16 0.16 0.16 0.15 0.13 0.11 0.11 0.10 0.09 0.09 0.09 0.08 0.10 0.12 0.13 0.13 0.14 0.13 0.13 0.12 0.13 0.15 0.17 0.20 0.24 0.31 0.40 0.41 0.41 0.45 0.53 0.55 0.56 0.75 0.70 0.60 0.49 0.42
0.14 0.08 0.09 0.10 0.14 0.17 0.20 0.19 0.17 0.15 0.14 0.13 0.11 0.10 0.09 0.09 0.09 0.10 0.13 0.16 0.16 0.17 0.15 0.15 0.15 0.16 0.18 0.19 0.21 0.24 0.30 0.35 0.43 0.54 0.52 0.44 0.49 0.57 0.84 0.78 0.64 0.55 0.49
0.32 0.23 0.17 0.17 0.24 0.23 0.22 0.20 0.21 0.19 0.16 0.13 0.12 0.10 0.10 0.10 0.13 0.17 0.18 0.20 0.23 0.25 0.25 0.24 0.26 0.28 0.29 0.28 0.28 0.32 0.38 0.36 0.44 0.59 0.51 0.36 0.45 0.65 0.94 0.94 0.81 0.76 0.68
0.52 0.52 0.45 0.37 0.35 0.38 0.36 0.29 0.31 0.31 0.29 0.25 0.26 0.24 0.24 0.30 0.38 0.51 0.47 0.51 0.47 0.47 0.50 0.48 0.50 0.53 0.51 0.40 0.44 0.50 0.42 0.41 0.61 0.66 0.51 0.39 0.52 0.79 0.96 1.04 0.95 0.88 0.86
0.77 0.76 0.77 0.64 0.48 0.43 0.44 0.58 0.69 0.67 0.70 0.66 0.71 0.69 0.71 0.73 0.71 0.66 0.79 0.87 0.91 0.99 0.99 0.99 1.13 0.99 0.75 0.57 0.72 0.80 0.52 0.50 0.59 0.55 0.43 0.46 0.61 0.89 1.06 1.06 1.00 0.94 0.92
1.10 0.99 0.82 0.79 0.73 0.72 0.82 0.85 0.91 1.02 1.11 1.20 1.25 1.23 1.31 1.14 0.97 0.92 1.17 1.31 1.29 1.30 1.20 1.46 1.65 1.25 1.18 1.22 1.20 1.07 0.83 0.73 0.72 0.64 0.61 0.69 0.82 1.07 1.22 1.11 1.07 1.03 0.90
1.48 1.45 1.32 1.15 1.12 1.11 1.06 0.99 0.97 0.97 1.06 1.16 1.25 1.32 1.49 1.52 1.41 1.44 1.58 1.47 1.44 1.46 1.63 1.68 1.79 1.60 1.51 1.47 1.43 1.46 1.38 1.07 0.97 0.93 1.03 1.12 1.17 1.29 1.39 1.31 1.23 1.16 1.06
2.04 2.10 2.29 1.92 1.63 1.49 1.29 1.10 0.98 0.95 0.87 0.87 0.97 1.19 1.39 1.52 1.60 1.71 1.55 1.39 1.23 1.50 1.77 1.78 1.61 1.73 1.75 1.82 1.79 1.76 1.74 1.42 1.25 1.20 1.27 1.50 1.48 1.43 1.51 1.58 1.53 1.42 1.37
2.78 2.73 2.72 2.61 2.20 1.81 1.49 1.24 1.08 0.90 0.91 0.93 0.97 1.06 1.24 1.39 1.48 1.53 1.46 1.35 1.28 1.45 1.64 1.66 1.62 1.82 1.91 1.89 1.59 1.49 1.44 1.46 1.36 1.18 1.32 1.48 1.53 1.40 1.45 1.65 1.72 1.69 1.69
3.26 3.32 3.27 3.14 2.78 2.41 2.10 1.65 1.30 1.10 0.99 1.03 1.04 0.97 1.01 1.12 1.16 1.27 1.29 1.25 1.27 1.33 1.37 1.34 1.36 1.55 1.53 1.43 1.28 1.22 1.25 1.26 1.29 1.28 1.19 1.25 1.38 1.43 1.36 1.49 1.60 1.63 1.74
3.91 4.10 4.01 3.65 3.35 2.84 2.38 2.01 1.69 1.48 1.30 1.12 1.01 0.88 0.75 0.81 0.87 0.96 0.94 0.97 1.01 1.05 1.06 1.04 1.06 1.16 1.25 1.34 1.34 1.20 1.29 1.31 1.25 1.36 1.37 1.26 1.37 1.33 1.52 1.62 1.60 1.54 1.69
5.07 5.37 4.98 4.25 3.72 3.07 2.42 2.07 1.87 1.78 1.58 1.32 1.16 0.98 0.81 0.74 0.77 0.82 0.81 0.82 0.77 0.78 0.80 0.76 0.84 0.96 1.05 1.11 1.05 1.10 1.06 1.07 1.05 1.05 1.21 1.09 1.14 1.28 1.44 1.53 1.58 1.52 1.72
5.50 5.98 5.66 4.88 3.95 3.16 2.66 2.32 2.03 1.83 1.56 1.28 1.16 1.02 0.83 0.72 0.69 0.66 0.63 0.59 0.53 0.55 0.61 0.66 0.75 0.83 0.85 0.91 0.83 0.88 0.84 0.78 0.80 0.84 0.82 0.85 0.94 0.92 1.12 1.31 1.45 1.23 1.50
4.65 5.03 4.82 4.05 3.33 2.68 2.18 1.69 1.42 1.28 1.10 0.94 0.88 0.80 0.73 0.65 0.59 0.53 0.45 0.45 0.40 0.40 0.43 0.45 0.53 0.61 0.64 0.71 0.81 0.80 0.70 0.65 0.64 0.63 0.61 0.62 0.66 0.79 0.99 1.16 1.23 1.22 1.10
3.24 3.28 2.76 2.38 2.02 1.61 1.39 1.13 0.90 0.79 0.65 0.56 0.53 0.50 0.43 0.44 0.46 0.42 0.41 0.39 0.36 0.37 0.36 0.39 0.45 0.49 0.52 0.57 0.66 0.68 0.63 0.61 0.60 0.49 0.55 0.55 0.58 0.76 0.87 0.87 0.97 1.09 0.92
2.21 2.01 1.67 1.47 1.44 1.23 1.08 0.87 0.68 0.60 0.51 0.41 0.37 0.36 0.33 0.30 0.31 0.33 0.35 0.37 0.36 0.32 0.32 0.34 0.35 0.38 0.40 0.42 0.50 0.58 0.59 0.57 0.52 0.46 0.46 0.48 0.56 0.65 0.68 0.77 0.74 0.75 0.83
1.41 1.33 1.39 1.36 1.26 1.08 0.98 0.75 0.53 0.42 0.37 0.31 0.30 0.29 0.29 0.25 0.22 0.22 0.25 0.30 0.31 0.32 0.32 0.25 0.26 0.32 0.34 0.31 0.34 0.42 0.41 0.46 0.52 0.51 0.45 0.47 0.54 0.54 0.54 0.58 0.59 0.62 0.67
1.01 1.15 1.38 1.39 1.18 0.98 0.89 0.81 0.75 0.61 0.53 0.41 0.34 0.32 0.29 0.27 0.24 0.20 0.19 0.23 0.28 0.34 0.39 0.35 0.33 0.31 0.30 0.27 0.28 0.35 0.36 0.31 0.37 0.46 0.47 0.45 0.46 0.39 0.38 0.39 0.40 0.48 0.52
0.88 0.94 1.04 1.10 1.16 1.09 1.01 0.89 0.88 0.79 0.69 0.55 0.44 0.37 0.35 0.33 0.33 0.30 0.28 0.31 0.35 0.34 0.35 0.37 0.40 0.39 0.37 0.34 0.27 0.29 0.43 0.40 0.30 0.36 0.38 0.42 0.41 0.29 0.30 0.35 0.37 0.41 0.48

GEFSSE_prec_meanprecacc_108.txt.gz
Total_Precipitation_Accumulation
0.08 0.08 0.18 0.17 0.09 0.06 0.08 0.12 0.15 0.15 0.13 0.13 0.12 0.11 0.10 0.06 0.04 0.04 0.04 0.04 0.04 0.05 0.06 0.08 0.10 0.12 0.14 0.15 0.18 0.21 0.23 0.27 0.42 0.49 0.54 0.63 0.81 0.97 1.19 1.39 1.50 1.25 0.98
0.02 0.04 0.16 0.20 0.14 0.10 0.10 0.12 0.15 0.16 0.15 0.15 0.14 0.13 0.12 0.08 0.06 0.05 0.05 0.05 0.05 0.06 0.06 0.08 0.11 0.11 0.12 0.12 0.13 0.18 0.23 0.35 0.48 0.63 0.76 0.85 0.96 1.13 1.23 1.36 1.48 1.08 0.85
0.01 0.01 0.08 0.16 0.14 0.12 0.11 0.12 0.13 0.15 0.15 0.15 0.13 0.13 0.10 0.07 0.06 0.05 0.05 0.05 0.05 0.06 0.05 0.07 0.10 0.09 0.10 0.11 0.13 0.18 0.25 0.41 0.61 0.82 1.02 1.03 0.79 1.02 1.13 1.31 1.34 0.84 0.73
0.01 0.01 0.03 0.11 0.13 0.11 0.11 0.12 0.12 0.13 0.11 0.11 0.11 0.10 0.08 0.06 0.06 0.06 0.05 0.05 0.07 0.07 0.07 0.08 0.10 0.08 0.07 0.09 0.13 0.21 0.27 0.42 0.61 0.97 1.11 0.98 0.73 0.78 0.96 0.94 0.95 0.75 0.68
0.03 0.02 0.04 0.09 0.11 0.11 0.11 0.11 0.11 0.10 0.09 0.09 0.09 0.09 0.07 0.06 0.06 0.06 0.06 0.07 0.08 0.08 0.09 0.10 0.12 0.11 0.09 0.08 0.13 0.23 0.32 0.47 0.64 0.89 0.77 0.90 0.98 0.81 0.78 0.75 0.79 0.67 0.58
0.04 0.03 0.06 0.09 0.11 0.11 0.11 0.11 0.10 0.09 0.09 0.08 0.08 0.08 0.06 0.06 0.06 0.07 0.08 0.08 0.09 0.11 0.12 0.12 0.13 0.13 0.12 0.11 0.15 0.24 0.37 0.53 0.68 0.59 0.54 0.66 0.69 0.76 0.72 0.70 0.65 0.57 0.45
0.04 0.04 0.06 0.12 0.14 0.14 0.13 0.13 0.12 0.11 0.10 0.09 0.09 0.08 0.07 0.07 0.08 0.08 0.10 0.11 0.11 0.14 0.14 0.14 0.14 0.14 0.16 0.16 0.18 0.25 0.39 0.58 0.60 0.50 0.53 0.64 0.60 0.63 0.72 0.74 0.69 0.53 0.42
0.06 0.04 0.07 0.13 0.15 0.16 0.16 0.16 0.15 0.13 0.12 0.11 0.10 0.09 0.09 0.09 0.09 0.10 0.12 0.14 0.13 0.15 0.14 0.14 0.13 0.14 0.16 0.18 0.22 0.26 0.37 0.49 0.50 0.46 0.47 0.53 0.56 0.58 0.77 0.71 0.62 0.52 0.44
0.23 0.10 0.09 0.10 0.14 0.17 0.20 0.19 0.17 0.15 0.14 0.13 0.12 0.10 0.10 0.09 0.09 0.10 0.14 0.16 0.17 0.18 0.16 0.15 0.16 0.17 0.19 0.20 0.23 0.27 0.37 0.46 0.51 0.59 0.54 0.45 0.50 0.58 0.85 0.79 0.65 0.57 0.50
0.41 0.26 0.19 0.19 0.24 0.23 0.22 0.21 0.21 0.19 0.16 0.14 0.12 0.10 0.10 0.10 0.14 0.18 0.19 0.20 0.23 0.26 0.26 0.25 0.27 0.29 0.30 0.29 0.31 0.37 0.46 0.47 0.54 0.68 0.55 0.38 0.47 0.66 0.95 0.95 0.82 0.78 0.69
0.65 0.57 0.48 0.40 0.36 0.38 0.36 0.30 0.32 0.31 0.30 0.25 0.26 0.25 0.25 0.31 0.39 0.51 0.47 0.51 0.47 0.47 0.50 0.49 0.50 0.53 0.53 0.42 0.48 0.56 0.54 0.57 0.79 0.78 0.56 0.42 0.53 0.80 0.97 1.04 0.96 0.89 0.88
0.98 0.86 0.83 0.70 0.52 0.45 0.45 0.58 0.70 0.68 0.70 0.66 0.71 0.69 0.71 0.74 0.73 0.67 0.80 0.88 0.92 1.00 0.99 1.00 1.14 1.01 0.78 0.60 0.77 0.91 0.70 0.70 0.81 0.67 0.48 0.49 0.63 0.90 1.06 1.07 1.01 0.96 0.93
1.35 1.14 0.90 0.85 0.78 0.76 0.84 0.86 0.92 1.03 1.12 1.21 1.26 1.24 1.32 1.16 0.99 0.94 1.17 1.32 1.30 1.30 1.21 1.47 1.67 1.28 1.22 1.29 1.30 1.20 1.03 0.93 0.90 0.75 0.66 0.72 0.84 1.08 1.23 1.13 1.08 1.04 0.91
1.75 1.65 1.51 1.27 1.19 1.18 1.10 1.01 0.98 0.97 1.07 1.16 1.26 1.34 1.50 1.54 1.43 1.45 1.58 1.47 1.45 1.47 1.64 1.69 1.82 1.65 1.58 1.56 1.52 1.58 1.52 1.22 1.11 1.04 1.08 1.15 1.20 1.31 1.40 1.32 1.24 1.18 1.08
2.31 2.26 2.47 2.10 1.78 1.60 1.37 1.16 1.02 0.97 0.88 0.88 0.98 1.21 1.40 1.53 1.62 1.72 1.56 1.41 1.25 1.52 1.78 1.80 1.64 1.77 1.80 1.89 1.86 1.85 1.86 1.58 1.38 1.28 1.32 1.54 1.51 1.46 1.53 1.59 1.54 1.44 1.39
3.06 2.98 2.95 2.86 2.35 1.93 1.61 1.34 1.14 0.94 0.94 0.95 0.98 1.07 1.26 1.40 1.48 1.54 1.48 1.37 1.30 1.46 1.65 1.67 1.64 1.84 1.94 1.94 1.66 1.59 1.58 1.62 1.48 1.27 1.38 1.53 1.58 1.44 1.48 1.67 1.73 1.70 1.71
3.52 3.66 3.63 3.46 2.97 2.57 2.26 1.82 1.38 1.16 1.04 1.07 1.07 0.99 1.03 1.13 1.17 1.28 1.30 1.25 1.28 1.34 1.38 1.35 1.38 1.57 1.55 1.48 1.35 1.31 1.36 1.39 1.40 1.38 1.25 1.28 1.42 1.48 1.41 1.54 1.64 1.67 1.78
4.10 4.37 4.35 3.97 3.56 3.01 2.54 2.18 1.79 1.55 1.36 1.19 1.07 0.91 0.78 0.83 0.89 0.98 0.95 0.97 1.02 1.06 1.06 1.04 1.06 1.18 1.27 1.38 1.38 1.27 1.39 1.43 1.37 1.45 1.44 1.31 1.41 1.36 1.56 1.69 1.66 1.60 1.77
5.26 5.59 5.25 4.50 3.93 3.26 2.59 2.25 2.07 1.92 1.68 1.42 1.27 1.05 0.86 0.77 0.80 0.84 0.81 0.83 0.78 0.79 0.81 0.77 0.85 0.97 1.06 1.13 1.08 1.15 1.13 1.17 1.15 1.15 1.30 1.17 1.22 1.32 1.48 1.57 1.65 1.58 1.79
5.64 6.17 5.88 5.09 4.15 3.34 2.83 2.51 2.31 2.04 1.71 1.41 1.27 1.10 0.88 0.75 0.71 0.69 0.64 0.61 0.55 0.57 0.62 0.66 0.76 0.83 0.86 0.91 0.85 0.91 0.89 0.84 0.88 0.93 0.90 0.94 1.00 0.97 1.16 1.35 1.49 1.27 1.55
4.76 5.18 5.00 4.27 3.57 2.88 2.35 1.85 1.63 1.48 1.28 1.08 0.99 0.86 0.77 0.68 0.62 0.56 0.48 0.47 0.42 0.41 0.44 0.45 0.53 0.61 0.64 0.71 0.82 0.82 0.73 0.69 0.70 0.69 0.66 0.69 0.73 0.85 1.07 1.22 1.27 1.23 1.11
3.36 3.44 2.94 2.59 2.24 1.80 1.56 1.30 1.07 0.97 0.82 0.68 0.62 0.57 0.47 0.46 0.48 0.44 0.43 0.40 0.38 0.38 0.37 0.39 0.45 0.50 0.52 0.58 0.66 0.68 0.64 0.64 0.64 0.53 0.60 0.61 0.65 0.81 0.93 0.93 1.01 1.10 0.93
2.33 2.16 1.80 1.58 1.58 1.39 1.26 1.09 0.88 0.80 0.71 0.59 0.49 0.46 0.39 0.33 0.33 0.36 0.38 0.39 0.39 0.34 0.33 0.35 0.36 0.38 0.40 0.42 0.51 0.59 0.60 0.58 0.53 0.49 0.51 0.53 0.59 0.68 0.71 0.80 0.76 0.76 0.84
1.51 1.45 1.49 1.45 1.35 1.19 1.15 0.90 0.66 0.52 0.47 0.41 0.39 0.37 0.36 0.30 0.26 0.26 0.28 0.33 0.33 0.33 0.33 0.26 0.27 0.32 0.34 0.31 0.35 0.43 0.42 0.46 0.52 0.53 0.48 0.50 0.57 0.55 0.54 0.58 0.60 0.63 0.68
1.07 1.23 1.46 1.46 1.27 1.08 1.01 0.92 0.86 0.73 0.64 0.53 0.47 0.45 0.40 0.37 0.31 0.24 0.22 0.26 0.30 0.36 0.40 0.35 0.33 0.31 0.30 0.28 0.28 0.36 0.36 0.31 0.37 0.47 0.48 0.46 0.48 0.40 0.38 0.39 0.40 0.48 0.52
0.91 1.00 1.13 1.19 1.25 1.19 1.12 1.00 0.98 0.90 0.80 0.68 0.56 0.47 0.43 0.39 0.38 0.34 0.32 0.35 0.37 0.35 0.36 0.37 0.40 0.39 0.37 0.34 0.27 0.30 0.43 0.40 0.31 0.36 0.38 0.42 0.41 0.29 0.30 0.35 0.37 0.41 0.48